[[{"header":{"parameterUnit":"m.s-1","parameterCategory":1,"la1":30.2991,"la2":30.254,"lo1":-89.0895,"lo2":-89.0444,"dy":0.0017,"dx":0.0017,"nx":28,"ny":28,"refTime":"2025-08-13T21:00:00:Z","depth":0,"parameterNumber":2,"parameterNumberName":"U-component_of_WINDS"},"data":[0,0,0,0,0,0,0,0,0,0,0,0,0,0,0,0,0,0,0,0,0,0,0,0,0,0,0,0,0,0,0,0,0,0,0,0,0,0,0,0,0,0,0,0,0,0,0,0,0,0,0,0,0,0,0,0,0,0,3.5095,3.5097,0,3.522,3.5221,3.5222,3.5181,3.5178,3.5176,3.5173,3.53,3.5306,3.5312,0,0,0,0,0,0,0,0,0,0,0,0,0,3.4822,3.4827,3.5095,3.5097,3.5098,3.5219,3.5221,3.5223,3.5182,3.5178,3.5175,3.5172,3.5299,3.5306,3.5313,0,0,0,0,0,0,0,0,0,0,0,0,0,3.4943,3.4828,3.5095,3.5092,3.5093,3.5219,3.5221,3.5223,3.5182,3.5178,3.5174,3.517,3.5296,3.5305,3.5314,3.5449,0,0,3.5341,3.5345,0,0,0,0,0,0,0,0,3.4936,3.4953,3.5091,3.5093,3.5094,3.5181,3.5171,3.5299,3.5183,3.5148,3.5173,3.5168,3.5264,3.5275,3.5307,3.5455,3.5461,3.5341,3.5347,3.5351,3.5353,0,0,0,0,0,0,0,3.4927,3.4947,3.5144,3.5093,3.5095,3.5085,3.5097,3.5195,3.5227,3.5151,3.5148,3.5164,3.5264,3.5299,3.531,3.5463,3.5341,3.5349,3.5355,3.5358,3.5727,3.5732,0,0,0,0,0,0,3.4918,3.494,3.514,3.5148,3.5003,3.5093,3.5107,3.5157,3.5226,3.5233,3.5167,3.5161,3.5286,3.53,3.5314,3.5477,3.5351,3.5359,3.5364,3.5723,3.5728,3.5733,0,0,0,0,0,0,3.4913,3.4936,3.5135,3.5044,3.5068,3.5102,3.5158,3.5162,3.5197,3.5238,3.5244,3.5197,3.5283,3.5302,3.5416,3.5481,3.5363,3.5371,3.5718,3.5725,3.5731,3.5805,0,0,0,0,0,0,3.4905,3.4935,3.4987,3.5045,3.5073,3.5235,3.5162,3.5167,3.5212,3.5206,3.5268,3.5274,3.5281,3.5403,3.5425,3.5491,3.5378,3.5712,3.5721,3.5729,3.5797,3.5813,3.5827,0,0,0,0,0,3.4895,3.5003,3.499,3.5014,3.5139,3.5239,3.5255,3.5261,3.5217,3.527,3.5297,3.5272,3.5471,3.5415,3.5439,3.5509,3.5708,3.5718,3.5728,3.579,3.581,3.5827,0,0,0,0,0,0,3.4951,3.501,3.4996,3.5126,3.5178,3.5232,3.5298,3.5283,3.5348,3.5339,3.5344,3.5359,3.5476,3.5504,3.5441,3.5644,3.5583,3.5598,3.5621,3.5641,3.5656,3.5646,3.5385,0,0,0,0,0,3.4979,3.5055,3.5103,3.5213,3.5239,3.5265,3.5308,3.5309,3.5362,3.5384,3.5419,3.5472,3.5546,3.5595,3.5666,3.5801,3.5813,3.5861,3.5876,3.5888,3.5902,3.5974,3.5996,3.5767,3.5766,3.5766,0,0,3.5037,3.5078,3.5126,3.5225,3.5265,3.5344,3.5283,3.5369,3.5428,3.5397,3.5507,3.5534,3.5594,3.5719,3.5775,3.5746,3.5968,3.5901,3.5911,3.5917,3.5987,3.6008,3.6028,3.5773,3.5772,3.5771,0,0,3.5181,3.5221,3.5316,3.5358,3.5419,3.5435,3.5458,3.5515,3.5532,3.5642,3.5621,3.569,3.5818,3.5861,3.59,3.6061,3.604,3.6084,3.6164,3.6234,3.6252,3.6268,3.6325,3.6345,3.6097,3.6097,3.6097,0,3.5245,3.5363,3.5367,3.5455,3.5499,3.5475,3.5571,3.5611,3.5693,3.5724,3.5689,3.5849,3.5887,3.6022,3.6061,3.6093,3.6119,3.6076,3.6249,3.6265,3.628,3.6334,3.6356,3.6102,3.6101,3.61,3.61,0,3.5438,3.552,3.559,3.5669,3.572,3.5812,3.583,3.5882,3.5878,3.5897,3.601,3.6055,3.6134,3.6166,3.6163,3.63,3.6279,3.6247,3.6186,3.6307,3.6358,3.6379,3.6108,3.6107,3.6105,3.6104,0,0,3.5622,3.5702,3.5727,3.5762,3.5828,3.5892,3.5982,3.6059,3.6103,3.6161,3.6236,3.6345,3.6315,3.6359,3.6361,3.6423,3.6547,3.6383,3.6385,3.6411,3.6699,3.6722,3.6746,3.6534,3.6538,3.6541,3.6694,0,3.5771,3.593,3.5936,3.6081,3.6157,3.6135,3.6214,3.6262,3.6283,3.635,3.6373,3.645,3.6405,3.6432,3.6492,3.6519,3.6604,3.6508,3.6604,3.6607,3.6589,3.6773,3.6798,3.6941,3.6714,3.6717,3.672,0,3.5967,3.603,3.6182,3.6237,3.6268,3.6339,3.641,3.6475,3.6529,3.654,3.6589,3.6581,3.6673,3.6609,3.6736,3.667,3.671,3.6729,3.6734,3.6743,3.667,3.6786,3.6986,3.7007,3.6751,3.6749,3.6747,0,3.6084,3.6207,3.6314,3.6345,3.6412,3.6462,3.6492,3.6543,3.6588,3.6651,3.668,3.6752,3.6792,3.6848,3.6859,3.6812,3.6986,3.6923,3.6997,3.6997,3.7034,3.7032,3.7243,3.7061,3.7061,3.706,3.706,0,3.6251,3.6344,3.6368,3.6433,3.6538,3.6544,3.6647,3.6674,3.6719,3.6789,3.6775,3.6841,3.6853,3.6922,3.6931,3.7034,3.7052,3.7063,3.7065,3.7064,3.7063,3.709,3.708,3.7066,3.7065,3.7064,3.7063,0,3.6399,3.6419,3.6533,3.6587,3.6603,3.6677,3.6723,3.6786,3.6805,3.6894,3.6915,3.6945,3.7025,3.7042,3.7137,3.7144,3.7266,3.7258,3.7248,3.7247,3.7319,3.7312,3.7555,3.7587,3.7385,3.7387,3.7388,0,3.6503,3.6575,3.6636,3.6682,3.6715,3.6789,3.6835,3.6845,3.6894,3.6962,3.7016,3.7095,3.7158,3.7287,3.7317,3.7389,3.7382,3.7462,3.7393,3.739,3.7383,3.7378,3.7385,3.7475,3.7478,3.7479,3.7481,0,3.6686,3.6692,3.676,3.6831,3.6887,3.6944,3.6998,3.7036,3.7053,3.7109,3.719,3.724,3.7336,3.7414,3.7487,3.7517,3.7502,3.7502,3.7523,3.7523,3.7514,3.7519,3.7283,3.7497,3.7495,3.7494,3.7493,3.7492,3.6815,3.6878,3.6931,3.7006,3.7048,3.7099,3.716,3.7187,3.7255,3.7334,3.7336,3.7425,3.7477,3.7573,3.7608,3.7678,3.7653,3.7683,3.7691,3.7698,3.7704,3.7504,3.7691,3.7691,3.769,3.769,3.769,0,3.6997,3.7029,3.7099,3.7175,3.7235,3.7215,3.7274,3.7325,3.7403,3.7454,3.7516,3.761,3.7685,3.7721,3.7796,3.7844,3.7839,3.7864,3.786,3.7867,3.7723,3.7697,3.7867,3.7866,3.7866,3.7866,3.7866,3.7866,3.7098,3.7202,3.7215,3.7339,3.7371,3.7458,3.7493,3.754,3.758,3.7685,3.7748,3.7771,3.7816,3.7893,3.7961,3.797,3.7998,3.8026,3.8031,3.7895,3.7877,3.786,3.7836,3.8032,3.8032,3.8169,3.817,3.8171]},{"header":{"parameterUnit":"m.s-1","parameterCategory":1,"la1":30.2991,"la2":30.254,"lo1":-89.0895,"lo2":-89.0444,"dy":0.0017,"dx":0.0017,"nx":28,"ny":28,"refTime":"2025-08-13T21:00:00:Z","depth":0,"parameterNumber":3,"parameterNumberName":"V-component_of_WINDS"},"data":[0,0,0,0,0,0,0,0,0,0,0,0,0,0,0,0,0,0,0,0,0,0,0,0,0,0,0,0,0,0,0,0,0,0,0,0,0,0,0,0,0,0,0,0,0,0,0,0,0,0,0,0,0,0,0,0,0,0,4.1022,4.1023,0,4.1193,4.1195,4.1197,4.1216,4.1215,4.1213,4.1211,4.1379,4.1385,4.1391,0,0,0,0,0,0,0,0,0,0,0,0,0,4.07,4.0705,4.1021,4.1024,4.1026,4.1193,4.1196,4.1198,4.1217,4.1215,4.1213,4.1211,4.1377,4.1384,4.1391,0,0,0,0,0,0,0,0,0,0,0,0,0,4.0852,4.0707,4.1021,4.1056,4.106,4.1193,4.1196,4.1198,4.1217,4.1215,4.1212,4.121,4.1374,4.1383,4.1392,4.1499,0,0,4.142,4.1424,0,0,0,0,0,0,0,0,4.0843,4.0864,4.1048,4.1053,4.1059,4.1181,4.1143,4.1299,4.1218,4.1157,4.1211,4.1208,4.1314,4.1328,4.1366,4.1507,4.1514,4.1421,4.1426,4.143,4.1433,0,0,0,0,0,0,0,4.0833,4.0856,4.1089,4.1051,4.1058,4.1059,4.1078,4.1173,4.1248,4.1162,4.1164,4.1185,4.1317,4.1357,4.137,4.1517,4.142,4.1428,4.1434,4.1438,4.1751,4.1754,0,0,0,0,0,0,4.0817,4.0848,4.1084,4.1094,4.0943,4.1067,4.1088,4.1144,4.1247,4.126,4.1187,4.1185,4.1343,4.1359,4.1376,4.1507,4.143,4.1438,4.1444,4.1749,4.1752,4.1755,0,0,0,0,0,0,4.081,4.0838,4.1077,4.0972,4.1002,4.1075,4.1138,4.1149,4.119,4.1266,4.1278,4.1215,4.1342,4.1363,4.1469,4.1513,4.1443,4.1451,4.1745,4.175,4.1754,4.177,0,0,0,0,0,0,4.0801,4.0835,4.0879,4.0973,4.1008,4.117,4.1141,4.1154,4.1206,4.1206,4.1295,4.1307,4.1341,4.1455,4.1477,4.1524,4.1458,4.1741,4.1747,4.1752,4.1766,4.1775,4.1782,0,0,0,0,0,4.0789,4.0876,4.0882,4.091,4.1065,4.1172,4.1192,4.1232,4.121,4.1253,4.1301,4.1305,4.1504,4.1466,4.1491,4.1541,4.1739,4.1745,4.1752,4.1763,4.1773,4.1782,0,0,0,0,0,0,4.0783,4.0889,4.0896,4.1016,4.1086,4.1175,4.1231,4.1242,4.1317,4.1312,4.1355,4.1375,4.1479,4.152,4.1475,4.1649,4.1619,4.1631,4.1618,4.1629,4.1637,4.1624,4.1465,0,0,0,0,0,4.0797,4.0878,4.0964,4.1062,4.1096,4.1158,4.1206,4.1231,4.1303,4.1331,4.1388,4.1455,4.1533,4.1583,4.1659,4.1772,4.179,4.1819,4.1826,4.1833,4.1842,4.1903,4.1916,4.1777,4.1777,4.1776,0,0,4.0823,4.0891,4.094,4.1062,4.1119,4.1199,4.1182,4.1268,4.1328,4.1343,4.1447,4.149,4.1568,4.1677,4.1728,4.1715,4.1885,4.1841,4.1845,4.1852,4.1911,4.1924,4.1936,4.1781,4.178,4.178,0,0,4.0914,4.0975,4.1062,4.1119,4.1206,4.1246,4.1266,4.1355,4.1385,4.149,4.1503,4.1572,4.1706,4.176,4.1805,4.1914,4.192,4.1937,4.1979,4.2038,4.2049,4.2059,4.2096,4.211,4.1947,4.1947,4.1947,0,4.0936,4.1062,4.1104,4.1191,4.1243,4.1263,4.135,4.1402,4.1508,4.1542,4.1526,4.1694,4.1747,4.1869,4.1895,4.1932,4.1954,4.1928,4.2044,4.2055,4.2065,4.2101,4.2115,4.1949,4.1948,4.1948,4.1948,0,4.1083,4.117,4.1229,4.1334,4.1392,4.1478,4.153,4.1584,4.1602,4.1643,4.1748,4.1813,4.1902,4.1932,4.195,4.2055,4.2045,4.2036,4.2007,4.2079,4.2114,4.2128,4.1951,4.195,4.195,4.1949,0,0,4.1177,4.1303,4.1324,4.1371,4.1467,4.1533,4.1618,4.1707,4.1752,4.1823,4.1893,4.2005,4.1998,4.2049,4.2073,4.2124,4.2204,4.2109,4.2112,4.2124,4.2322,4.2328,4.2344,4.2208,4.2211,4.2213,4.2315,0,4.1278,4.1434,4.1474,4.1605,4.1684,4.1703,4.1776,4.1841,4.1881,4.195,4.1992,4.2071,4.2056,4.2086,4.2138,4.2184,4.2245,4.2177,4.2272,4.2274,4.2252,4.2362,4.2369,4.2462,4.2329,4.2332,4.2333,0,4.1418,4.1495,4.1634,4.1719,4.1753,4.1819,4.1903,4.1971,4.2043,4.2068,4.2124,4.2143,4.2228,4.2194,4.2311,4.2264,4.2305,4.2332,4.2337,4.2347,4.2308,4.2374,4.2493,4.2507,4.2355,4.2354,4.2352,0,4.147,4.1608,4.171,4.1749,4.1851,4.1896,4.194,4.201,4.2061,4.2133,4.2165,4.2245,4.2289,4.2348,4.2387,4.2359,4.2499,4.2469,4.252,4.2519,4.2549,4.2547,4.2676,4.2576,4.2575,4.2575,4.2575,0,4.1579,4.1664,4.1735,4.1797,4.1891,4.1934,4.2025,4.2069,4.2131,4.2199,4.2219,4.2282,4.2329,4.2397,4.2427,4.2518,4.2538,4.2558,4.2565,4.2556,4.2554,4.2583,4.2578,4.2579,4.2578,4.2577,4.2577,0,4.1655,4.1706,4.1818,4.1905,4.1928,4.1994,4.2066,4.2126,4.2165,4.2251,4.2273,4.2334,4.2416,4.246,4.2561,4.2581,4.2682,4.2686,4.2659,4.2662,4.271,4.2705,4.2862,4.2885,4.277,4.2771,4.2772,0,4.1721,4.1787,4.1881,4.193,4.1976,4.2053,4.2105,4.2149,4.2202,4.2288,4.2336,4.2419,4.2488,4.2617,4.2668,4.2744,4.2749,4.2799,4.2761,4.275,4.2749,4.2745,4.275,4.2806,4.2807,4.2808,4.2808,0,4.1833,4.1855,4.1931,4.2016,4.2078,4.2146,4.2212,4.225,4.2304,4.2361,4.2447,4.25,4.2604,4.2685,4.2766,4.2807,4.2816,4.282,4.2836,4.2828,4.2809,4.2819,4.2677,4.2816,4.2815,4.2815,4.2814,4.2814,4.1905,4.1964,4.204,4.2123,4.2179,4.224,4.23,4.2347,4.242,4.251,4.253,4.2619,4.2687,4.2797,4.284,4.2907,4.2897,4.292,4.2926,4.2931,4.2933,4.2799,4.2922,4.2922,4.2922,4.2922,4.2921,0,4.2017,4.2067,4.2143,4.2238,4.2302,4.2308,4.2381,4.2434,4.2513,4.2577,4.2645,4.2741,4.2819,4.2876,4.2955,4.2998,4.3004,4.3017,4.3014,4.3023,4.2938,4.2916,4.3011,4.3011,4.3011,4.3011,4.3011,4.3011,4.2084,4.2183,4.2214,4.2339,4.2387,4.2477,4.2518,4.2574,4.2625,4.2733,4.2799,4.2837,4.2897,4.298,4.3051,4.3065,4.3093,4.3106,4.312,4.3039,4.3029,4.302,4.3,4.3112,4.3112,4.32,4.3201,4.3202]}]]